Probability
0 0 0 0 0 0 0 0 0 0 0 0 0 0 0 0 0 0 0 0 0 0 0 0 0 0 0 0 0 0 0 0 0 0 0 0 0 0 0 0 0 0 0
0 0 0 0 0 0 0 0 0 0 0 0 0 0 0 0 0 0 0 0 0 0 0 0 0 0 0 0 0 0 0 0 0 0 0 0 0 0 0 0 0 0 0
0 0 0 0 0 0 0 0 0 0 0 0 0 0 0 0 0 0 0 0 0 0 0 0 0 0 0 0 0 0 0 0 0 0 0 0 0 0 0 0 0 0 0
0 0 0 0 0 0 0 0 0 0 0 0 0 0 0 0 0 0 0 0 0 0 0 0 0 0 0 0 0 0 0 0 0 0 0 0 0 0 0 0 0 0 0
0 0 0 0 0 0 0 0 0 0 0 0 0 0 0 0 0 0 0 0 0 0 0 0 0 0 0 0 0 0 0 0 0 0 0 0 0 0 0 0 0 0 0
0 0 0 0 0 0 0 0 0 0 0 0 0 0 0 0 0 0 0 0 0 0 0 0 0 0 0 0 0 0 0 0 0 0 0 0 0 0 0 0 0 0 0
0 0 0 0 0 0 0 0 0 0 0 0 0 0 0 0 0 0 0 0 0 0 0 0 0 0 0 0 0 0 0 0 0 0 0 0 0 0 0 0 0 0 0
0 0 0 0 0 0 0 0 0 0 0 0 0 0 0 0 0 0 0 0 0 0 0 0 0 0 0 0 0 0 0 0 0 0 0 0 0 0 0 0 0 0 0
0 0 0 0 0 0 0 0 0 0 0 0 0 0 0 0 0 0 0 0 0 0 0 0 0 0 0 0 0 0 0 0 0 0 0 0 0 0 0 0 0 0 0
0 0 0 0 0 0 0 0 0 0 0 0 0 0 0 0 0 0 0 0 0 0 0 0 0 0 0 0 0 0 0 0 0 0 0 0 0 0 0 0 0 0 0
0 0 0 0 0 0 0 0 0 0 0 0 0 0 0 0 0 0 0 0 0 0 0 0 0 0 0 0 0 0 0 0 0 0 0 0 0 0 0 0 0 0 0
0 0 0 0 0 0 0 0 0 0 0 0 0 0 0 0 0 0 0 0 0 0 0 0 0 0 0 0 0 0 0 0 0 0 0 0 0 0 0 0 0 0 0
0 0 0 0 0 0 0 0 0 0 0 0 0 0 0 0 0 0 0 0 0 0 0 0 0 0 0 0 0 0 0 0 0 0 0 0 0 0 0 0 0 0 0
0 0 0 0 0 0 0 0 0 0 0 0 0 0 0 0 0 0 0 0 0 0 0 0 0 0 0 0 0 0 0 0 0 0 0 0 0 0 0 0 0 0 0
0 0 0 0 0 0 0 0 0 0 0 0 0 0 0 0 0 0 0 0 0 0 0 0 0 0 0 0 0 0 0 0 0 0 0 0 0 0 0 0 0 0 0
0 0 0 0 0 0 0 0 0 0 0 0 0 0 0 0 0 0 0 0 0 0 0 0 0 0 0 0 0 0 0 0 0 0 0 0 0 0 0 0 0 0 0
0 0 0 0 0 0 0 0 0 0 0 0 0 0 0 0 0 0 0 0 0 0 0 0 0 0 0 0 0 0 0 0 0 0 0 0 0 0 0 0 0 0 0
0 0 0 0 0 0 0 0 0 0 0 0 0 0 0 0 0 0 0 0 0 0 0 0 0 0 0 0 0 0 0 0 0 0 0 0 0 0 0 0 0 0 0
0 0 0 0 0 0 0 0 0 0 0 0 0 0 0 0 0 0 0 0 0 0 0 0 0 0 0 0 0 0 0 0 0 0 0 0 0 0 0 0 0 0 0
0 0 0 0 0 0 0 0 0 0 0 0 0 0 0 0 0 0 0 0 0 0 0 0 0 0 0 0 0 0 0 0 0 0 0 0 0 0 0 0 0 0 0
0 0 0 0 0 0 0 0 0 0 0 0 0 0 0 0 0 0 0 0 0 0 0 0 0 0 0 0 0 0 0 0 0 0 0 0 0 0 0 0 0 0 0
0 0 0 0 0 0 0 0 0 0 0 0 0 0 0 0 0 0 0 0 0 0 0 0 0 0 0 0 0 0 0 0 0 0 0 0 0 0 0 0 0 0 0
0 0 0 0 0 0 0 0 0 0 0 0 0 0 0 0 0 0 0 0 0 0 0 0 0 0 0 0 0 0 0 0 0 0 0 0 0 0 0 0 0 0 0
0 0 0 0 0 0 0 0 0 0 0 0 0 0 0 0 0 0 0 0 0 0 0 0 0 0 0 0 0 0 0 0 0 0 0 0 0 0 0 0 0 0 0
0 0 0 0 0 0 0 0 0 0 0 0 0 0 0 0 0 0 0 0 0 0 0 0 0 0 0 0 0 0 0 0 0 0 0 0 0 0 0 0 0 0 0
0 0 0 0 0 0 0 0 0 0 0 0 0 0 0 0 0 0 0 0 0 0 0 0 0 0 0 0 0 0 0 0 0 0 0 0 0 0 0 0 0 0 0
Wind_Speed
2 2 1 1 1 1 1 1 1 1 2 2 2 2 2 3 3 3 3 3 3 3 3 3 4 4 3 2 3 3 3 3 5 4 2 2 3 3 2 2 3 3 3
2 2 2 1 1 1 1 1 1 1 1 2 2 2 2 2 2 3 3 3 3 3 3 3 4 3 3 2 3 3 3 3 4 5 3 2 3 3 3 3 3 3 3
2 2 1 1 1 1 1 1 1 1 1 1 1 2 2 2 2 2 2 2 3 3 3 3 3 2 2 2 2 2 2 3 3 3 3 2 2 2 2 2 3 3 3
2 2 1 2 2 2 1 1 1 0 0 1 1 1 1 1 1 1 2 1 2 2 2 2 3 2 2 2 2 2 2 3 2 3 3 2 2 2 2 2 2 2 3
2 2 2 2 2 2 1 1 1 1 0 0 0 1 1 1 1 1 1 1 1 1 1 1 1 1 2 2 1 2 2 2 2 3 3 2 2 2 2 2 3 3 3
2 2 2 2 2 2 2 1 1 1 1 0 0 0 1 1 0 1 1 1 1 1 1 1 1 1 1 1 2 2 3 3 3 3 3 4 4 3 2 2 2 2 3
2 2 2 2 1 2 1 1 1 1 1 1 1 0 0 1 1 0 1 1 1 1 1 1 1 1 1 1 2 2 2 3 4 4 5 4 4 3 3 3 3 4 4
2 2 2 2 1 1 1 1 1 1 1 1 1 1 1 1 1 0 1 1 1 1 1 1 1 1 1 1 1 2 2 2 3 4 4 5 4 3 4 4 4 3 3
2 2 2 2 1 1 1 1 1 1 1 1 1 1 1 1 2 1 1 0 0 1 1 1 1 1 1 1 1 2 2 2 2 3 4 4 4 4 3 2 2 2 3
3 3 2 2 2 2 1 1 1 1 1 1 1 1 1 1 2 2 1 0 0 1 1 1 1 2 1 2 2 2 2 3 2 3 3 3 3 2 2 2 2 3 2
3 2 2 2 2 2 1 1 1 1 1 1 1 1 1 1 2 2 2 1 1 1 1 1 1 2 2 2 2 2 3 3 2 2 2 2 1 1 1 2 2 2 3
2 2 2 2 2 1 1 1 1 1 1 1 1 1 1 1 2 2 2 2 2 2 2 1 1 3 3 2 2 2 2 2 1 1 2 1 1 1 2 2 2 2 3
2 2 2 2 2 2 2 2 2 2 2 2 1 1 1 1 2 3 2 2 2 2 1 2 2 2 2 2 2 3 2 1 1 1 1 2 2 2 2 2 2 2 2
3 3 2 2 2 2 2 2 2 2 2 2 2 2 2 2 2 2 1 2 2 2 1 1 1 1 0 0 1 1 1 1 1 1 1 2 2 1 1 1 2 2 2
3 3 3 3 2 2 2 2 3 3 4 4 3 3 3 3 3 4 3 2 2 2 1 0 1 1 1 1 1 1 1 1 1 1 1 2 2 2 2 1 2 2 2
4 4 3 3 2 2 2 2 4 5 5 6 6 5 4 5 5 5 4 4 3 2 1 1 1 1 1 1 1 1 1 1 1 1 2 2 2 2 2 2 2 2 3
5 4 3 3 3 3 3 3 3 3 3 4 5 6 6 5 5 5 5 4 2 2 2 2 2 2 2 2 2 2 2 2 1 2 2 2 2 2 2 2 2 2 3
5 4 4 3 3 3 3 3 3 3 3 3 3 5 5 5 5 4 4 3 2 2 2 2 2 2 2 2 2 2 2 2 2 2 2 2 2 2 2 3 2 3 3
4 4 3 3 3 3 3 3 3 4 4 3 2 3 3 4 4 4 3 2 3 3 3 3 3 3 3 3 2 2 2 2 2 2 2 2 2 2 3 3 3 3 3
4 5 4 3 3 4 4 4 4 4 4 3 3 3 2 2 2 2 2 2 3 3 3 3 3 3 3 3 3 3 3 3 3 3 2 2 2 2 3 4 3 4 3
3 3 4 4 4 4 4 4 4 4 4 4 4 4 5 3 4 4 3 3 3 3 3 3 3 3 3 3 3 3 4 3 3 3 2 2 2 3 3 3 3 4 3
3 3 3 4 4 4 4 4 4 4 5 5 4 4 6 4 4 4 4 4 3 3 3 3 3 3 3 4 4 4 4 4 3 3 3 3 3 3 3 3 3 3 4
3 4 4 4 4 4 4 4 4 5 5 5 4 4 4 4 4 4 4 4 3 3 3 3 4 4 4 4 4 4 5 5 4 4 4 4 3 3 3 4 4 4 4
3 4 4 4 4 4 4 5 5 5 5 5 5 4 4 4 5 5 5 4 4 4 4 4 4 6 7 5 4 4 5 5 5 4 6 5 5 4 4 4 5 5 5
3 4 4 4 4 4 4 5 5 5 5 5 5 5 5 5 5 5 4 4 5 5 5 5 5 5 7 8 7 6 7 8 7 5 5 5 6 6 5 5 5 5 5
4 4 4 4 4 4 4 5 5 5 5 5 5 5 5 5 5 5 5 5 5 5 5 5 6 7 8 7 8 9 9 9 9 8 6 5 6 6 6 5 6 5 5
Wind_Direction
316 302 285 278 270 258 256 258 258 253 239 228 223 221 222 224 223 223 227 226 226 232 234 234 240 242 237 235 237 238 238 239 247 259 256 267 254 256 270 275 279 279 278
316 306 292 289 274 249 277 287 276 261 247 241 234 228 226 224 222 223 227 228 228 229 234 236 242 244 245 245 242 240 242 237 241 255 256 261 255 255 265 270 278 275 280
316 302 298 303 299 294 297 291 273 272 275 271 243 234 230 229 222 226 228 229 234 239 237 237 241 237 245 254 259 258 258 254 247 244 251 258 268 263 263 268 276 278 282
318 307 311 313 308 306 309 301 305 313 294 287 277 262 246 237 231 229 222 221 234 244 247 250 247 233 238 250 252 264 271 261 253 247 244 245 261 265 256 266 277 276 283
329 323 324 325 322 328 333 334 356 1 359 324 311 312 298 244 238 238 223 214 217 229 245 263 264 252 256 250 251 259 259 254 247 250 253 252 253 252 247 252 262 278 280
326 326 329 327 338 347 339 347 360 345 335 331 235 281 318 323 15 203 203 213 212 209 237 285 286 259 275 268 260 262 252 247 249 247 253 254 262 258 257 248 255 272 273
322 327 326 325 341 350 346 344 337 329 331 319 333 332 323 350 357 157 160 193 194 209 235 251 283 323 293 275 266 269 270 269 261 254 251 255 265 262 258 251 247 255 267
322 323 321 320 330 336 340 337 332 327 314 313 330 340 339 359 1 20 136 182 189 224 241 237 243 257 279 302 290 281 282 283 283 272 263 267 270 273 256 255 255 263 276
303 312 311 301 295 299 296 299 312 318 313 315 324 333 329 336 352 355 22 192 186 232 268 263 253 253 281 267 250 262 278 287 299 302 294 288 280 271 258 244 236 242 264
289 294 299 293 274 265 273 285 294 291 290 307 315 317 311 314 335 348 353 310 243 268 274 272 266 270 283 259 242 247 270 290 300 299 296 294 291 281 253 236 233 240 257
281 287 288 285 276 263 261 264 266 269 274 285 294 312 315 308 308 322 331 300 266 267 264 264 272 290 282 281 261 259 274 287 281 277 277 281 287 284 284 292 278 250 251
271 270 274 277 274 263 245 249 242 224 226 248 267 295 306 307 306 306 316 305 302 268 264 270 275 293 291 288 276 291 287 275 262 271 279 280 282 289 302 300 296 286 273
260 259 267 273 270 259 240 236 237 232 229 239 243 260 282 297 302 306 306 297 297 289 282 304 305 292 282 277 285 294 282 270 261 257 274 290 295 294 298 300 302 293 288
248 255 256 252 252 254 249 237 232 231 230 231 236 243 260 273 277 280 274 274 279 282 287 307 307 313 317 19 347 330 319 311 283 278 292 299 302 297 296 310 307 314 303
245 250 250 247 246 251 254 246 240 242 234 230 235 235 239 253 262 270 273 270 269 265 266 276 294 287 299 319 335 341 338 338 316 302 289 290 298 299 298 308 301 297 284
238 240 239 239 240 242 249 264 266 260 261 255 249 249 255 261 266 264 263 267 266 236 205 223 243 261 266 277 286 294 299 297 293 283 279 279 285 293 293 293 287 280 284
238 240 239 236 235 237 240 245 262 281 272 267 260 259 260 259 261 260 255 252 247 223 223 227 239 244 248 254 260 264 268 275 272 264 268 275 283 286 287 281 277 278 283
242 241 239 238 238 236 236 239 243 249 258 265 272 267 269 271 276 272 258 243 233 225 229 232 236 243 247 246 246 251 258 261 253 254 258 265 271 276 280 281 274 272 279
244 239 234 237 238 238 237 237 238 241 245 254 268 266 269 272 276 272 266 248 230 230 232 234 238 242 246 247 246 244 244 245 247 248 252 258 263 267 271 277 278 274 271
244 239 233 232 233 234 233 232 233 235 237 241 247 254 255 245 246 252 248 241 238 237 236 237 239 240 241 244 243 239 241 241 240 240 247 254 256 256 262 268 273 273 273
243 237 229 233 234 234 234 234 234 232 233 239 247 247 243 242 243 245 242 238 237 237 237 239 240 240 240 241 239 235 236 242 243 245 249 255 257 258 260 262 267 270 270
241 240 235 238 240 240 240 238 235 233 234 239 245 246 247 248 247 246 245 245 245 242 240 238 240 240 239 239 238 236 234 236 237 237 244 250 252 255 259 261 261 265 265
242 240 239 239 240 241 242 237 233 234 236 239 240 238 235 236 240 244 246 249 249 247 241 236 238 241 242 241 242 240 239 239 237 232 235 241 244 247 249 254 258 262 265
240 242 245 247 243 241 239 236 234 235 237 238 238 237 236 237 239 243 245 247 248 248 243 238 239 242 246 249 246 243 244 247 245 237 234 236 240 243 245 249 254 253 257
239 241 245 247 247 248 247 241 237 236 237 238 240 240 240 239 241 243 242 241 243 245 247 247 244 244 245 247 248 248 249 249 244 238 234 233 236 238 240 244 247 250 251
244 244 246 248 249 249 250 248 244 241 241 242 242 242 241 241 242 242 242 240 241 244 247 247 246 248 251 251 251 249 247 246 241 234 227 227 230 232 233 236 240 243 248